Weather History for Madera, CA

Change the Weather History Date:

Tuesday, October 30, 2012

  Actual Average Record
Temperature  
Mean Temperature 65 °F 59 °F  
Max Temperature 82 °F 73 °F 82 °F (1999)
Min Temperature 48 °F 45 °F 36 °F (2006)
Degree Days  
Heating Degree Days 0    
Month to date heating degree days 71  
Since 1 July heating degree days 71  
Cooling Degree Days 0    
Month to date cooling degree days 93  
Year to date cooling degree days 1737  
Growing Degree Days 15 (Base 50)    
Moisture  
Dew Point 48 °F    
Average Humidity 59    
Maximum Humidity 86    
Minimum Humidity 31    
Precipitation  
Precipitation 0.00 in 0.06 in 0.32 in (2001)
Month to date precipitation 0.11 0.81  
Year to date precipitation 6.33 9.10  
Since 1 July precipitation 0.11 1.10  
Snow  
Snow 0.00 in - - ()
Month to date snowfall 0.0  
Since 1 July snowfall 0.0  
Since 1 September snowfall 0.0  
Snow Depth 0.00 in    
Sea Level Pressure  
Sea Level Pressure 30.00 in    
Wind  
Wind Speed 2 mph (East)    
Max Wind Speed 8 mph    
Max Gust Speed 9 mph    
Visibility 10 miles    
Events      
T = Trace of Precipitation, MM = Missing Value Source: NWS Daily Summary

Daily Weather History Graph

Daily Weather History Graph

Search for Another Location

Airport:

Trip Planner

Search our weather history database for the weather conditions in past years. The results will help you decide how hot, cold, wet, or windy it might be!

Date:

Astronomy

Oct. 30, 2012 Rise Set
Actual Time 7:23 AM PDT 6:04 PM PDT
Civil Twilight 6:56 AM PDT 6:31 PM PDT
Nautical Twilight 6:25 AM PDT 7:01 PM PDT
Astronomical Twilight 5:55 AM PDT 7:32 PM PDT
Moon 6:39 PM PDT (10/30) 8:12 AM PDT (10/30)
Length of Visible Light 11h 35m
Length of Day
10h 41m
Full, 99% of the Moon is Illuminated
Oct 30
Full
Nov 6
Last Quarter
Nov 13
New
Nov 20
First Quarter
Nov 28
Full

Hourly Weather History & Observations

Time (PDT) Temp. Dew Point Humidity Pressure Visibility Wind Dir Wind Speed Gust Speed Precip Events Conditions
12:53 AM 55.0 °F 48.0 °F 77% 30.05 in 10.0 mi NE 3.5 mph - N/A   Clear
1:53 AM 53.1 °F 46.9 °F 80% 30.04 in 10.0 mi Calm Calm - N/A   Clear
2:53 AM 50.0 °F 46.0 °F 86% 30.04 in 10.0 mi SSE 3.5 mph - N/A   Clear
3:53 AM 54.0 °F 46.0 °F 75% 30.02 in 10.0 mi East 3.5 mph - N/A   Clear
4:53 AM 51.1 °F 44.1 °F 77% 30.02 in 10.0 mi East 3.5 mph - N/A   Clear
5:53 AM 48.9 °F 44.1 °F 83% 30.04 in 10.0 mi Calm Calm - N/A   Clear
6:53 AM 48.9 °F 43.0 °F 80% 30.04 in 10.0 mi Calm Calm - N/A   Clear
7:53 AM 50.0 °F 43.0 °F 77% 30.05 in 10.0 mi ENE 3.5 mph - N/A   Clear
8:53 AM 59.0 °F 44.1 °F 58% 30.07 in 10.0 mi ESE 4.6 mph - N/A   Clear
9:53 AM 64.9 °F 48.9 °F 56% 30.07 in 10.0 mi SE 6.9 mph - N/A   Clear
10:53 AM 69.1 °F 50.0 °F 51% 30.07 in 10.0 mi Calm Calm - N/A   Clear
11:53 AM 73.0 °F 51.1 °F 46% 30.05 in 10.0 mi SSE 5.8 mph - N/A   Clear
12:53 PM 75.9 °F 51.1 °F 42% 30.01 in 10.0 mi Calm Calm - N/A   Clear
1:53 PM 79.0 °F 51.1 °F 38% 29.99 in 10.0 mi Calm Calm - N/A   Clear
2:53 PM 80.1 °F 48.9 °F 34% 29.97 in 10.0 mi Calm Calm - N/A   Clear
3:53 PM 82.0 °F 48.0 °F 30% 29.96 in 10.0 mi SW 3.5 mph - N/A   Clear
4:53 PM 81.0 °F 48.9 °F 33% 29.94 in 10.0 mi West 3.5 mph - N/A   Clear
5:53 PM 75.0 °F 52.0 °F 44% 29.94 in 10.0 mi NW 3.5 mph - N/A   Clear
6:53 PM 68.0 °F 52.0 °F 56% 29.94 in 10.0 mi Calm Calm - N/A   Clear
7:53 PM 63.0 °F 50.0 °F 63% 29.95 in 10.0 mi Calm Calm - N/A   Clear
8:53 PM 62.1 °F 48.9 °F 62% 29.95 in 10.0 mi Calm Calm - N/A   Clear
9:53 PM 62.1 °F 50.0 °F 65% 29.96 in 10.0 mi East 5.8 mph - N/A   Clear
10:53 PM 60.1 °F 48.0 °F 64% 29.95 in 10.0 mi NE 3.5 mph - N/A   Clear
11:53 PM 53.1 °F 46.9 °F 80% 29.96 in 10.0 mi Calm Calm - N/A   Clear